Regional Weather Roundup
Issued by NWS

Home | Current Version | Previous Version | Text Only | Print | Product List | Glossary On
Versions: 1 2 3 4 5 6 7 8 9 10 11 12 13 14 15 16 17 18 19 20 21 22 23 24 25 26 27 28 29 30 31 32 33 34 35 36 37 38 39 40 41 42 43 44 45 46 47 48 49 50
000
ASUS43 KDTX 231110
RWRMI
MICHIGAN HOURLY REGIONAL WEATHER ROUNDUP
NATIONAL WEATHER SERVICE DETROIT/PONTIAC MI
700 AM EDT SAT JUL 23 2016

NOTE: "FAIR" INDICATES FEW OR NO CLOUDS BELOW 12,000 FEET WITH NO
SIGNIFICANT WEATHER AND/OR OBSTRUCTION TO VISIBILITY.

MIZ047>049-052>055-059>063-066>070-074>076-081>083-231200-
SOUTHEAST LOWER MICHIGAN

CITY           SKY/WX    TMP DP  RH WIND       PRES   REMARKS
ADRIAN         CLEAR     67  67 100 CALM      30.00S
ALMA           CLEAR     67  67 100 CALM      29.99S FOG
ANN ARBOR      CLEAR     65  65 100 CALM      29.99S
BAD AXE        PTCLDY    60  59  96 CALM      29.97R
CARO           CLEAR     65  64  99 S3        29.98R
DETROIT CITY   CLEAR     73  70  90 W3        29.98S
DETROIT        PTCLDY    73  68  84 NW6       29.99R
FLINT          CLEAR     70  67  90 W5        30.00R FOG
GROSSE ILE     CLEAR     74  69  85 NW6       29.97S
HOWELL         CLEAR     68  67  97 SW3       30.00S FOG

CITY           SKY/WX    TMP DP  RH WIND       PRES   REMARKS
JACKSON        CLEAR     68  68 100 CALM      30.01S FOG
LAMBERTVILLE   CLEAR     68  67  94 CALM      30.00R FOG
LANSING        CLEAR     67  64  90 CALM      30.01R
LAPEER         FAIR      65  64  97 CALM      29.99R
MASON          FOG       65  64  97 CALM      30.01R VSB 3/4
MONROE         PTCLDY    69  69  99 CALM      29.98S
MT. CLEMENS    CLEAR     71  68  90 SW2       29.95S
PONTIAC        PTCLDY    70  68  93 W6        29.99S
PORT HOPE        N/A     69  62  78 W7        29.94S
PORT HURON     CLEAR     66  66 100 CALM      29.97S FOG
TRI CITIES     CLEAR     69  67  93 SW6       29.99R
MIDLAND        FAIR      64  63  99 CALM      29.97S
TROY           CLEAR     73  68  87 CALM      30.00S
SAGINAW HB     CLEAR     68  66  94 SW5       29.98R
$$
MIZ043>046-050>051-056>058-064>065-071>073-077>080-231200-
SOUTHWEST LOWER MICHIGAN

CITY           SKY/WX    TMP DP  RH WIND       PRES   REMARKS
BATTLE CREEK   CLEAR     64  64 100 CALM      30.01S
BENTON HARBOR  CLEAR     67  65  93 CALM      29.98S FOG
BIG RAPIDS     PTCLDY    64  64 100 CALM      29.99S
COLDWATER      FOG       65  65 100 CALM      30.01R VSB<1/4
FREMONT        FOG       64  64 100 CALM      30.00R VSB<1/4
HOLLAND        FOG       64  63  96 CALM      30.00S VSB 3/4
GRAND RAPIDS   PTCLDY    65  63  93 CALM      30.01R FOG
IONIA            N/A     66  64  94 W3        30.00R FOG
KALAMAZOO      CLEAR     65  63  93 CALM      30.00S
LUDINGTON      FOG       63  63 100 CALM      29.97R VSB 1
MARSHALL       FOG       64  64  98 CALM      30.00S VSB<1/4
MOUNT PLEASANT PTCLDY    68  67  95 CALM      29.98R
MUSKEGON       MOCLDY    67  66  97 SE3       29.99R
SOUTH HAVEN    CLEAR     64  64  99 CALM      29.99S
$$
MIZ016>042-231200-
NORTHERN LOWER MICHIGAN

CITY           SKY/WX    TMP DP  RH WIND       PRES   REMARKS
ALPENA         CLEAR     66  61  84 CALM      29.95S
BEAVER ISLAND  FOG       60  60 100 CALM      29.97R VSB 1/2
BELLAIRE       FOG       59  58  96 CALM      29.97S VSB 3/4
CADILLAC       FOG       63  59  89 CALM      30.00R VSB 3/4
CHARLEVOIX     CLEAR     65  64  97 CALM      30.00R
FRANKFORT      PTCLDY    67  65  94 CALM      29.98R FOG
GAYLORD        CLEAR     63  59  87 W3        30.00R
GRAYLING       CLEAR     59  58  97 CALM      30.00S
HARBOR SPRINGS CLEAR     64  63  96 CALM      29.97R
HOUGHTON LAKE  PTCLDY    60  58  92 CALM      30.00S
MANISTEE       CLOUDY    63  63 100 SE3       29.98R FOG
OSCODA         CLEAR     65  59  81 CALM      29.95S
PELLSTON       CLEAR     59  57  93 CALM      29.97R
ROGERS CITY    CLEAR     67  61  80 W5        29.96R
TRAVERSE CITY  CLOUDY    69  66  90 CALM      29.96R
$$
MIZ007>008-015-231200-
EASTERN UPPER MICHIGAN

CITY           SKY/WX    TMP DP  RH WIND       PRES   REMARKS
KINROSS        CLEAR     63  58  83 NW9       29.97R
MACKINAC ISLAN CLEAR     67  67 100 W8        29.96R
NEWBERRY       CLEAR     61  60  96 W5        29.97R
S. S. MARIE    CLEAR     62  58  86 SW3       29.96R
MUNISING         N/A     60  58  92 S3        29.98R
$$
MIZ004>006-011>014-085-231200-
CENTRAL UPPER MICHIGAN

CITY           SKY/WX    TMP DP  RH WIND       PRES   REMARKS
MANISTIQUE     CLEAR     62  60  94 CALM      29.97R
ESCANABA       CLEAR     63  57  82 NW6       29.97R
MENOMINEE      PTCLDY    67  62  84 NW6       29.99R
SAWYER-GWINN   CLEAR     59  54  82 NW3       30.00R
$$
MIZ001>003-009>011-084-231200-
WESTERN UPPER MICHIGAN

CITY           SKY/WX    TMP DP  RH WIND       PRES   REMARKS
IRON MOUNTAIN  CLEAR     58  54  86 CALM      30.00R
HOUGHTON       PTCLDY    64  56  75 NW5       29.99R
COPPER HARBOR    N/A     65  60  84 CALM      29.97R
IRONWOOD       PTCLDY    55  55 100 CALM      30.01S
$$

ABBREVIATIONS USED IN REMARKS
   TC - TEMPERATURE IN CELSIUS
  WCI - WIND CHILL INDEX
   HX - HEAT INDEX
  VSB - VISIBILITY




USA.gov is the U.S. government's official web portal to all federal, state and local government web resources and services.